Weather in Havza

Turkey     40°58′02″N   35°40′07″E
temp.,
°C
wind,
m/s
gust,
m/s
humid.,
%
clouds,
%
prec.,
mm/h
press.,
hPa
HPBL,
m
19 september, sun
sun1900:00+17s22345 0.0 101316
03:00+16ssw333683 0.0 101338
06:00+15s3362100 0.3 101479
09:00+19sw35495 0.8 1014367
12:00+24sw45345 0.0 10131227
15:00+26nnw443699 0.0 10111810
18:00+19ene347618 0.7 1014196
21:00+15e33935 0.8 101662
20 september, mon
mon2000:00+14ne118624 0.1 101511
03:00+14s11810 0.1 101511
06:00+13ssw21860 0.0 101512
09:00+19sw23645 0.1 1014363
12:00+25sw46395 0.0 10131387
15:00+27wnw262928 0.0 10112857
18:00+22e114880 0.2 101215
21:00+16ne22864 0.2 101529
21 september, tue
tue2100:00+16ese11810 0.0 101411
03:00+16ssw11736 0.0 101411
06:00+16s227384 0.0 101314
09:00+21ssw2354100 0.0 1012239
12:00+27wsw463322 0.0 10101090
15:00+28nnw6632100 0.0 10091655
18:00+17ne588599 0.8 1013602
21:00+15ne3582100 3.0 1016690
22 september, wed
wed2200:00+15ne2389100 0.9 1016212
03:00+14n1295100 1.4 1015161
06:00+14ne2492100 1.4 1015269
09:00+12nne3790100 2.6 1016677
12:00+11ne3488100 1.6 1016503
15:00+11ne3484100 2.2 1015481
18:00+11ne2687100 0.9 1015510
21:00+10ne2590100 1.1 1015458
23 september, thu
thu2300:00+10nne2391100 0.1 1014287
03:00+9nne2490100 0.3 1012368
06:00+9n2493100 1.9 1011462
09:00+8nne3591100 3.3 1011320
12:00+7nw4795100 4.1 1013429
15:00+6wnw1389100 11.3 1013283
18:00+8s1282100 0.7 1013184
21:00+6ssw228892 0.7 101538